EISGEGAC

Guest
Details From EISG - Sligo
To EGAC - Belfast City
Flight Number -
Tags generated
Created
Modified
Stats Distance 98 nm / 182 km
Max Altitude 2,700 ft / 823 m
Waypoints 3
Social Downloads 4
Likes 0
Share

Download

Looking for another format? Having issues loading an existing format? Contact us
Advertisement - Login to hide

Notes

Basic altitude profile: - Ascent Rate: 2500ft/min - Ascent Speed: 250kts - Cruise Altitude: 35000ft - Cruise Speed: 420kts - Descent Rate: 1500ft/min - Descent Speed: 250kts Options: - Use NATs: yes - Use PACOTS: yes - Use low airways: yes - Use high airways: yes

Route

EISG BEL EGAC

ID Type Via Altitude (ft/m) Position (lat/lon) Dist (leg/tot) Name
O EISG APT - 0 / 0 54.28021 / -8.59920 - / 0 nm Sligo
BEL VOR - 2,700 / 823 54.66111 / -6.23000 85 / 85 nm BELFAST VOR-DME
O EGAC APT - 0 / 0 54.61811 / -5.87258 12 / 98 nm Belfast City

Altitude Profile

Advertisement - Login to hide

EISG

Details ICAO EISG (SXL)
Name Sligo
Region Ireland
Timezone Europe/Dublin (UTC+1.0)
Stats Elevation 11 ft / 3 m (AMSL)
Location 54.280200° -8.599220°
Runways 1
Magnetic Variation 3.526° W

METAR

EISG 011000Z 03008KT 9999 FEW026 OVC034 13/09 Q1015

Decode

TAF

Not found

Departure Runways

ID Width Length Bearing (true/mag) Surface Threshold Overrun Markings Lighting
11 98 ft / 30 m 3,923 ft / 1,196 m 100.37° / 103.90° ASPHALT 131 ft / 40 m 0 ft / 0 m APP EDGE THRESHOLD REIL-UNI
29 98 ft / 30 m 3,923 ft / 1,196 m 280.39° / 283.91° ASPHALT 128 ft / 39 m 0 ft / 0 m APP EDGE THRESHOLD ODALS REIL-UNI

EGAC

Details ICAO EGAC (BHD)
Name George Best - Belfast City
Region United Kingdom
Timezone Europe/London (UTC+1.0)
Stats Elevation 15 ft / 5 m (AMSL)
Location 54.618100° -5.872440°
Runways 1
Magnetic Variation 2.479° W

METAR

EGAC 011020Z AUTO 01009KT 9999 NCD 17/11 Q1013

Decode

TAF

Not found

Destination Runways

ID Width Length Bearing (true/mag) Surface Threshold Overrun Markings Lighting
04 150 ft / 46 m 5,946 ft / 1,812 m 34.69° / 37.17° ASPHALT 256 ft / 78 m 0 ft / 0 m PREC-APP CENTERLINE EDGE THRESHOLD MALSF REIL-OMNI
22 150 ft / 46 m 5,946 ft / 1,812 m 214.70° / 217.18° ASPHALT 0 ft / 0 m 0 ft / 0 m PREC-APP CENTERLINE EDGE THRESHOLD MALSF REIL-OMNI

Approach Navaids

Runway Type Ident Frequency Range Bearing (true/mag) Slope Elevation
04 GS IHBD 108.10 MHz 10 nm / 19 km 34.70° / 37.18 ° 3.00° 15 ft / 5 m (AMSL)
04 DME HBD 108.10 MHz 18 nm / 33 km - - 30 ft / 9 m (AMSL)
04 LOC-ILS IHBD 108.10 MHz 18 nm / 33 km 34.70° / 37.18 ° - 15 ft / 5 m (AMSL)
22 LOC-ILS IBFH 108.10 MHz 18 nm / 33 km 214.70° / 217.18 ° - 15 ft / 5 m (AMSL)
22 DME IBFH 108.10 MHz 18 nm / 33 km - - 30 ft / 9 m (AMSL)
22 GS IBFH 108.10 MHz 10 nm / 19 km 216.70° / 219.18 ° 3.00° 15 ft / 5 m (AMSL)